Back to catalog

LT-1 01B

AliveScienceSSO
NORAD 51822·PAYLOAD·🇨🇳 China

Launched Feb 26, 2022 from Jiuquan Satellite Launch Center

Loading…

Next Passes (next 24 hours)

TLE

FreshSource: Space-Track

Epoch: Sep 14, 2026, 15:02 UTC

1 51822U 22018A   26257.62656175  .00000433  00000-0  52563-4 0  9996
2 51822  97.8110 263.7814 0001560  87.0026 273.1369 14.88415526247011

Track LT-1 01B in real time with AllMySat

Download on the App Store